Wind_Speed
8 7 7 7 7 3 8 21 14 21 26 25 26 18 12 10 11 8 8 8 10 13 8 8 6 5 4 2 4 4 5 0 2 5 11 14 17 15 15 16 11 10 11 11
12 7 8 5 5 7 7 12 13 7 24 30 22 15 24 19 16 17 11 6 6 7 5 8 5 4 3 1 2 4 4 1 2 3 13 11 11 7 6 10 10 14 13 9
13 10 11 9 6 8 11 9 3 3 21 26 26 15 18 21 15 5 15 1 6 4 8 11 3 2 5 1 1 3 4 2 1 5 12 10 9 8 7 9 11 11 13 13
13 11 10 12 10 12 12 8 10 19 22 22 18 11 17 22 23 23 20 1 6 7 7 7 4 3 6 3 2 3 5 4 4 4 7 10 9 7 7 10 7 7 8 17
13 13 13 13 13 15 16 13 16 11 11 16 3 14 13 21 21 20 23 2 7 4 5 4 2 4 6 4 5 2 4 5 5 5 6 8 7 9 1 8 8 8 9 13
16 17 17 15 16 16 18 18 18 12 6 1 4 15 23 26 6 13 15 8 13 2 8 2 5 11 8 8 4 3 5 5 5 6 5 5 6 6 6 6 8 9 10 12
19 18 12 8 19 19 20 24 18 13 12 18 18 18 25 19 23 17 16 12 4 3 6 3 2 2 11 7 4 7 5 7 8 6 6 5 6 5 6 6 8 9 12 14
21 21 12 14 23 25 18 22 20 12 6 12 18 21 22 18 13 18 22 19 22 9 3 5 4 4 3 6 7 7 9 7 7 9 9 9 8 8 8 5 10 11 10 9
19 19 14 14 13 22 15 20 13 15 17 12 7 21 11 4 5 4 27 28 21 17 7 4 4 9 2 9 13 6 12 10 8 9 10 9 8 8 6 8 11 11 8 11
19 22 18 14 7 23 23 14 17 11 9 10 5 13 17 20 18 26 29 28 11 18 13 9 8 10 12 9 15 13 15 14 11 12 12 10 8 6 6 6 9 10 12 11
27 23 15 24 18 20 20 17 22 22 19 18 16 16 14 17 20 23 30 32 35 9 14 9 7 13 14 13 15 17 18 17 14 14 16 13 9 7 7 7 8 8 9 12
36 28 24 26 21 21 15 23 19 22 21 23 24 17 18 21 22 23 22 21 10 9 12 8 8 12 14 16 14 18 19 19 16 19 19 18 14 12 10 9 8 9 8 8
37 34 32 30 27 20 18 18 24 24 22 21 25 22 18 24 33 28 28 18 19 12 9 8 11 11 13 15 16 19 19 16 12 16 19 19 17 15 13 10 9 10 10 8
43 42 40 40 31 28 30 39 37 32 23 25 21 15 20 28 38 25 25 18 19 8 9 12 10 10 9 8 12 18 15 14 14 20 18 18 20 18 15 13 12 12 12 13
45 41 42 44 44 39 34 38 39 30 29 25 27 24 32 30 34 33 36 20 24 9 13 10 8 6 5 6 9 16 14 14 14 18 24 24 20 19 19 14 14 13 13 18
42 44 41 37 40 42 42 40 44 35 29 27 21 34 32 35 24 32 31 28 10 12 16 10 7 2 2 8 7 10 11 12 13 13 12 19 20 21 23 19 16 16 18 15
42 46 47 40 46 45 38 43 48 41 34 33 28 18 30 29 28 35 38 35 24 15 15 11 8 6 5 4 9 8 8 9 10 9 8 4 6 17 20 20 17 16 8 3
45 47 50 46 49 48 38 34 45 48 32 38 35 23 29 30 37 31 37 32 30 17 17 16 12 9 8 6 4 5 7 6 6 8 8 7 8 8 8 4 6 7 9 10
40 42 41 48 53 47 43 39 37 48 45 31 34 33 31 23 37 34 36 38 30 22 17 16 15 15 10 9 9 9 9 9 9 9 8 7 7 6 5 4 3 2 2 3
35 36 36 40 46 52 46 43 37 40 54 43 39 44 46 33 35 35 31 31 30 27 18 16 17 18 15 11 12 12 10 10 11 9 8 7 5 4 3 2 2 3 4 6
30 30 31 34 40 45 44 50 47 48 51 49 40 37 34 39 40 35 39 30 30 39 23 19 18 18 18 15 13 14 13 12 11 10 9 7 6 6 5 4 4 5 6 8
35 34 41 40 40 43 37 36 41 54 51 54 53 47 45 42 45 39 38 36 33 27 23 20 19 19 18 16 13 11 13 15 15 14 13 11 9 9 9 8 9 9 10 12
36 38 38 41 45 43 36 34 36 53 56 61 59 57 48 55 40 35 27 29 27 31 34 24 24 22 19 15 15 16 15 14 14 16 16 16 15 13 14 14 13 13 14 16
42 38 37 42 42 36 39 37 46 51 63 68 41 48 56 55 54 51 51 46 33 22 25 10 24 25 20 14 12 13 14 14 13 13 14 14 13 13 13 14 14 15 15 16
38 37 42 15 24 19 33 46 39 51 25 53 42 51 54 54 50 51 43 42 26 21 20 19 32 30 23 19 18 17 15 12 11 11 11 10 11 11 11 11 13 14 15 17
29 32 42 40 32 32 31 27 38 46 49 40 48 44 39 43 51 46 43 35 33 25 23 31 33 32 25 21 21 17 13 11 11 9 9 10 10 10 9 10 13 16 17 18
Wind_Direction
302 331 336 322 330 99 341 319 287 299 319 321 337 331 284 258 288 328 10 332 304 298 299 287 278 344 337 126 183 209 237 278 308 302 171 181 174 184 196 202 217 217 228 213
279 293 293 302 350 326 224 272 297 243 306 311 307 340 341 332 327 320 302 62 354 261 290 283 282 283 322 141 204 230 216 184 31 111 145 152 158 178 210 215 202 205 198 215
269 277 288 300 321 320 294 306 324 289 291 295 306 306 333 339 350 344 296 50 48 86 261 246 280 307 272 239 167 210 213 156 99 135 145 149 156 166 190 185 170 205 228 202
264 265 277 291 284 285 295 270 270 263 274 299 290 289 316 315 313 341 262 312 89 346 33 171 47 284 272 264 228 204 203 165 153 153 162 167 170 182 210 203 198 201 206 181
261 266 264 263 273 282 300 270 277 285 288 297 263 296 299 304 303 335 340 316 340 102 53 127 229 290 271 270 247 243 225 185 160 155 173 169 178 182 161 219 213 199 197 184
268 274 277 282 285 285 290 287 278 277 278 331 308 290 308 330 281 346 342 212 315 17 115 137 157 214 250 256 256 222 225 184 189 158 182 181 177 199 203 212 208 206 209 206
260 258 267 312 302 289 283 281 277 253 252 307 322 335 343 339 333 347 352 349 352 224 35 132 151 191 171 218 252 206 216 186 199 194 201 204 220 214 234 225 236 227 212 216
265 251 240 332 307 301 293 267 262 247 254 284 301 331 329 317 349 349 351 343 340 339 47 331 342 264 192 203 252 209 206 198 199 200 203 200 203 208 221 206 223 229 227 231
267 263 211 213 294 291 310 268 274 247 249 274 319 320 239 307 323 3 322 322 315 315 340 318 295 291 257 209 235 201 212 204 214 236 214 202 197 192 197 219 231 225 222 231
308 291 232 199 273 276 297 283 245 229 254 283 219 303 308 305 277 295 312 306 188 294 304 318 317 298 273 233 221 224 212 217 223 233 237 218 203 206 195 204 232 242 243 239
248 269 263 230 203 255 285 296 254 252 213 241 236 240 294 283 288 287 294 322 311 276 293 302 305 275 264 236 206 217 219 222 218 229 233 232 211 214 217 206 228 238 252 247
253 248 239 257 241 231 232 282 287 257 238 226 241 239 278 290 280 284 287 307 311 271 258 319 290 260 252 223 211 209 220 224 221 225 226 230 229 226 223 218 224 235 256 254
247 241 242 237 242 237 252 269 273 284 260 250 248 242 275 288 289 295 298 306 316 282 299 345 310 292 262 229 211 207 222 219 227 216 217 224 234 231 230 231 228 236 246 252
250 253 246 246 240 224 229 237 235 233 244 251 243 239 281 290 296 294 295 308 324 289 342 330 315 294 288 234 238 206 220 229 222 221 217 221 220 233 235 233 234 240 245 248
251 254 250 251 253 234 237 237 245 228 225 238 228 229 252 280 283 282 278 278 297 292 315 304 301 313 252 255 225 214 213 225 225 228 224 226 221 225 219 237 235 236 245 251
261 261 263 259 252 252 240 234 245 257 207 226 226 236 242 258 269 278 283 276 274 272 277 283 279 274 238 226 213 220 215 216 221 228 228 225 226 217 217 225 226 238 261 266
257 258 259 258 257 252 244 235 234 246 215 221 227 238 237 248 265 263 268 280 271 247 256 260 256 249 222 192 187 180 194 208 218 203 188 203 197 209 197 201 229 246 268 234
256 252 252 255 256 249 243 240 230 234 231 232 210 211 232 248 255 261 269 274 248 267 263 252 240 233 217 212 200 157 151 158 165 158 152 148 141 149 154 195 240 256 252 251
258 256 252 249 252 251 241 238 232 233 228 233 224 215 232 234 258 258 265 268 242 244 240 246 243 231 211 205 200 192 178 165 156 150 145 138 132 140 152 168 181 188 256 286
259 247 250 246 249 249 243 232 221 231 231 223 232 215 216 227 248 254 272 278 279 245 216 235 231 229 225 219 220 211 199 178 170 167 164 159 158 166 186 199 231 266 287 298
258 248 240 247 246 246 244 235 226 230 222 219 220 220 234 227 225 235 239 244 247 245 209 216 224 224 214 229 232 223 218 212 207 206 208 207 204 213 229 241 267 282 290 295
272 248 230 237 246 250 250 236 225 210 218 215 221 208 217 230 238 233 239 251 262 259 215 207 220 222 210 208 221 225 233 230 231 229 232 236 238 245 253 259 268 273 278 283
254 250 240 243 245 247 254 232 223 215 217 220 220 217 221 228 233 233 246 249 268 249 242 200 218 221 221 217 219 236 241 234 236 239 241 243 248 254 264 272 276 283 289 290
239 241 242 244 244 248 259 240 225 230 227 210 220 214 218 235 238 239 241 251 263 248 186 206 232 227 220 217 215 231 237 237 234 234 240 242 246 251 258 268 279 284 286 287
246 241 233 247 249 267 245 247 226 210 232 217 220 220 225 228 238 237 236 250 247 230 221 244 237 225 215 216 221 229 235 243 246 247 242 237 243 249 258 271 277 280 283 286
248 237 240 253 253 249 265 251 240 246 225 212 216 214 224 237 238 245 228 244 253 247 237 195 208 217 207 215 228 229 227 228 235 233 236 236 242 254 267 289 302 301 300 297
Height
5900 5900 5900 5899 5895 5893 5897 5898 5896 5894 5890 5892 5891 5891 5892 5890 5883 5888 5886 5886 5884 5884 5887 5888 5890 5888 5889 5891 5891 5891 5891 5890 5890 5891 5892 5894 5898 5900 5905 5907 5912 5914 5912 5912
5898 5898 5898 5897 5896 5895 5895 5895 5896 5897 5889 5891 5893 5891 5888 5888 5890 5890 5887 5883 5885 5885 5885 5886 5889 5890 5890 5890 5890 5890 5890 5890 5891 5892 5894 5897 5899 5899 5902 5906 5911 5912 5915 5915
5894 5896 5894 5894 5894 5893 5894 5893 5896 5896 5894 5891 5891 5891 5888 5887 5889 5887 5888 5882 5884 5883 5883 5884 5884 5888 5889 5890 5889 5890 5889 5890 5892 5895 5895 5897 5897 5897 5900 5903 5910 5911 5912 5916
5891 5891 5891 5891 5891 5892 5892 5892 5892 5891 5890 5889 5891 5889 5887 5885 5885 5887 5884 5882 5879 5882 5879 5880 5883 5886 5888 5889 5890 5889 5889 5889 5893 5896 5896 5896 5897 5899 5900 5901 5907 5910 5912 5915
5888 5888 5888 5889 5889 5889 5889 5889 5888 5887 5887 5886 5887 5884 5884 5883 5879 5882 5879 5880 5882 5880 5879 5878 5880 5886 5887 5888 5889 5888 5889 5889 5892 5895 5897 5897 5898 5900 5901 5902 5905 5908 5911 5914
5885 5884 5885 5887 5886 5886 5886 5885 5885 5884 5884 5884 5882 5881 5878 5881 5878 5877 5879 5879 5882 5882 5877 5879 5880 5883 5885 5887 5888 5887 5888 5889 5891 5894 5897 5898 5899 5899 5900 5901 5904 5908 5909 5910
5879 5880 5882 5883 5882 5883 5882 5880 5880 5881 5880 5877 5879 5879 5880 5881 5876 5873 5876 5877 5881 5876 5873 5879 5879 5881 5885 5885 5886 5886 5886 5887 5890 5893 5896 5898 5898 5899 5898 5900 5902 5906 5910 5911
5872 5874 5876 5879 5878 5877 5877 5876 5876 5876 5876 5876 5877 5875 5878 5876 5871 5871 5872 5873 5870 5870 5873 5874 5876 5879 5882 5882 5883 5883 5885 5887 5887 5890 5894 5897 5897 5898 5899 5899 5903 5904 5907 5910
5867 5868 5870 5871 5872 5874 5874 5871 5874 5872 5873 5874 5874 5874 5868 5872 5868 5868 5870 5867 5864 5864 5869 5873 5874 5873 5875 5881 5881 5881 5884 5885 5886 5887 5890 5894 5895 5897 5898 5898 5898 5902 5905 5908
5863 5862 5867 5868 5867 5868 5868 5870 5869 5869 5870 5870 5873 5875 5871 5873 5871 5871 5869 5867 5856 5862 5866 5868 5870 5871 5872 5876 5877 5880 5881 5883 5884 5885 5886 5890 5891 5894 5896 5897 5896 5899 5901 5902
5855 5858 5861 5864 5863 5865 5866 5865 5866 5866 5865 5865 5866 5870 5872 5872 5872 5872 5868 5870 5864 5868 5867 5866 5869 5870 5869 5872 5875 5876 5879 5880 5881 5882 5883 5885 5889 5891 5892 5893 5894 5896 5899 5900
5849 5849 5850 5854 5859 5860 5862 5862 5862 5862 5865 5863 5863 5867 5868 5869 5867 5870 5869 5867 5869 5867 5868 5865 5868 5866 5866 5866 5869 5872 5874 5876 5878 5879 5880 5882 5885 5888 5891 5891 5892 5894 5895 5897
5840 5842 5843 5845 5851 5855 5858 5860 5860 5858 5859 5859 5862 5863 5865 5866 5862 5863 5861 5866 5865 5865 5864 5860 5861 5861 5860 5863 5868 5868 5870 5873 5874 5877 5878 5880 5882 5884 5888 5889 5889 5892 5892 5894
5831 5834 5837 5838 5842 5846 5846 5843 5845 5851 5852 5856 5857 5861 5861 5861 5855 5853 5854 5860 5862 5860 5858 5859 5859 5861 5860 5862 5865 5866 5866 5870 5871 5873 5874 5877 5879 5881 5884 5886 5887 5888 5890 5892
5821 5821 5825 5828 5830 5835 5838 5838 5837 5840 5845 5847 5852 5854 5856 5857 5853 5849 5851 5856 5856 5857 5855 5861 5860 5860 5860 5860 5859 5863 5862 5867 5867 5867 5870 5872 5875 5878 5880 5881 5885 5886 5888 5888
5812 5811 5812 5817 5819 5822 5826 5830 5832 5834 5839 5841 5844 5847 5851 5854 5855 5842 5844 5851 5853 5854 5854 5856 5859 5860 5861 5861 5861 5861 5861 5863 5865 5866 5869 5869 5870 5871 5875 5879 5882 5883 5885 5885
5800 5799 5799 5803 5805 5808 5816 5820 5825 5829 5831 5833 5836 5838 5846 5847 5848 5846 5845 5847 5853 5854 5854 5853 5855 5858 5860 5861 5862 5859 5860 5862 5862 5863 5865 5865 5864 5866 5869 5875 5879 5881 5881 5881
5784 5785 5785 5787 5790 5793 5806 5811 5815 5816 5820 5821 5822 5828 5832 5834 5837 5842 5843 5843 5846 5850 5852 5852 5851 5853 5855 5856 5856 5856 5857 5859 5861 5862 5864 5865 5865 5867 5870 5873 5876 5877 5878 5878
5770 5769 5771 5771 5771 5780 5788 5796 5804 5807 5811 5811 5813 5818 5822 5820 5824 5829 5832 5833 5834 5840 5846 5847 5847 5850 5853 5854 5856 5858 5859 5859 5860 5862 5863 5864 5865 5867 5869 5871 5872 5873 5874 5874
5755 5755 5755 5758 5756 5758 5774 5780 5787 5787 5796 5805 5805 5808 5813 5817 5820 5825 5823 5820 5824 5832 5839 5844 5846 5849 5851 5853 5855 5856 5857 5857 5859 5861 5862 5863 5864 5865 5867 5868 5868 5869 5869 5870
5742 5742 5742 5743 5741 5746 5754 5762 5774 5777 5788 5795 5797 5799 5801 5805 5804 5815 5818 5821 5825 5829 5833 5838 5841 5846 5848 5850 5853 5855 5856 5856 5856 5858 5859 5860 5861 5862 5864 5865 5865 5865 5865 5865
5730 5730 5728 5730 5731 5734 5745 5751 5756 5763 5771 5783 5786 5792 5796 5792 5799 5804 5809 5812 5816 5826 5829 5834 5838 5843 5844 5845 5848 5851 5852 5852 5853 5853 5855 5856 5858 5858 5859 5860 5861 5860 5860 5860
5717 5716 5719 5722 5724 5728 5733 5740 5744 5751 5754 5765 5774 5781 5782 5785 5790 5799 5802 5808 5811 5817 5829 5827 5833 5837 5839 5840 5842 5844 5846 5846 5847 5848 5850 5851 5853 5853 5853 5854 5854 5854 5854 5853
5701 5706 5711 5710 5715 5718 5719 5725 5730 5737 5734 5753 5764 5771 5773 5774 5786 5795 5800 5810 5811 5816 5817 5823 5830 5836 5836 5836 5837 5840 5841 5841 5842 5842 5844 5845 5846 5848 5848 5848 5848 5848 5848 5847
5693 5697 5700 5699 5703 5708 5709 5712 5713 5728 5729 5742 5754 5766 5765 5773 5774 5789 5792 5801 5804 5808 5812 5819 5827 5828 5830 5831 5833 5835 5837 5837 5838 5839 5840 5841 5842 5843 5843 5843 5843 5842 5842 5841
5683 5689 5693 5696 5699 5704 5704 5703 5708 5713 5724 5733 5746 5759 5758 5766 5771 5774 5786 5790 5794 5794 5802 5805 5813 5819 5823 5826 5832 5833 5833 5834 5835 5835 5837 5838 5838 5838 5838 5837 5836 5835 5834 5832